Regional Weather Roundup
Issued by NWS

Home | Current Version | Previous Version | Graphics & Text | Print | Product List | Glossary On
Versions: 1 2 3 4 5 6 7 8 9 10 11 12 13 14 15 16 17 18 19 20 21 22 23 24 25 26 27 28 29 30 31 32 33 34 35 36 37 38 39 40 41 42 43 44 45 46 47 48 49 50
000
ASUS43 KLMK 131710
RWRKY
KENTUCKY REGIONAL WEATHER ROUNDUP
NATIONAL WEATHER SERVICE LOUISVILLE KY
100 PM EDT SUN JUL 13 2014

NOTE "FAIR" INDICATES FEW OR NO CLOUDS BELOW 12,000 FEET
WITH NO SIGNIFICANT WEATHER AND/OR OBSTRUCTIONS TO VISIBILITY.

KYZ001>023-026-027-061>063-070>075-131800-
WESTERN AND SOUTH CENTRAL KENTUCKY

CITY           SKY/WX    TMP DP  RH WIND       PRES   REMARKS
PADUCAH        MOSUNNY   90  76  63 SW10      30.03F HX 101
HENDERSON      PTSUNNY   88  75  66 SW9G16    29.99S HX  97
OWENSBORO      SUNNY     92  74  55 SW12      30.00F HX 101
HOPKINSVILLE   MOSUNNY   90  73  57 SW12      30.05F HX  99
BOWLING GREEN  MOSUNNY   91  71  51 W9        30.05F HX  97
GLASGOW        PTSUNNY   90  68  49 SW10      30.06F HX  93
$$

KYZ024-025-028>034-038-045-046-053-131800-
NORTH CENTRAL KENTUCKY

CITY           SKY/WX    TMP DP  RH WIND       PRES   REMARKS
LOUISVILLE/SDF MOSUNNY   92  72  51 S16       29.99F HX  99
LOUISVILLE/LOU SUNNY     91  73  55 SW10      30.00F HX  99
FORT KNOX      SUNNY     89  75  62 SW10      30.01F HX  98
$$

KYZ035>037-039>044-047>052-055>060-089>105-131800-
NORTHEAST KENTUCKY

CITY           SKY/WX    TMP DP  RH WIND       PRES   REMARKS
LEXINGTON      SUNNY     91  70  49 SW14G21   30.03F HX  96
COVINGTON      PTSUNNY   88  72  58 SW10      29.98S HX  94
FRANKFORT      MOSUNNY   89  71  55 SW17G23   30.01F HX  95
$$

KYZ054-064>069-076>088-106>120-131800-
SOUTHEAST KENTUCKY

CITY           SKY/WX    TMP DP  RH WIND       PRES   REMARKS
JACKSON        MOSUNNY   87  68  52 VRB6      30.10F HX  90
LONDON         MOSUNNY   90  67  46 W13G18    30.10F HX  93
SOMERSET       MOSUNNY   86  63  45 W12G21    30.09F
MIDDLESBORO    PTSUNNY   83  71  66 S12G20    30.12F
MONTICELLO     MOSUNNY   90  70  51 SW12      30.10F HX  95
$$



USA.gov is the U.S. government's official web portal to all federal, state and local government web resources and services.